Location: South Tamworth Observatory
(43.8246°N, 71.3026°W)
Time: 02:44:05
(UTC-04:00)

Amateur Radio Satellites - All Passes

Search period start: 25 July 2014 02:14
Search period end: 26 July 2014 02:14
Location: South Tamworth Observatory, 43.8246°N, 71.3026°W

Satellite Date Start Highest point End Downlink Frequencies (MHz)
Time Altitude Azimuth
ITAMSAT 1 25 Jul 02:16:02 02:20:30 29° 95° (E) 02:24:56 435.822 SSB
OPAL 25 Jul 02:27:51 02:31:11 19° 59° (ENE) 02:34:32 ?
AO-Echo 25 Jul 02:29:11 02:34:02 40° 97° (E) 02:38:41 ?
Gurwin Techsat 1B 25 Jul 02:31:33 02:35:01 17° 90° (E) 02:38:28 435.225 FM
AO-27 25 Jul 02:33:43 02:38:39 42° 98° (E) 02:43:32 436.795 MHz FM
Uribyol 2 25 Jul 02:36:20 02:41:19 46° 99° (E) 02:46:15 436.500 FM
Lituanica SAT-1 25 Jul 02:41:03 02:41:40 11° 356° (N) 02:42:18 437.275 MHz beacon
Sapphire 25 Jul 02:47:30 02:52:42 47° 307° (NW) 02:57:56 437.095 MHz 1200 baud AX-25 AFSK
Oscar 19 25 Jul 03:16:10 03:20:57 40° 292° (WNW) 03:25:44 437.125 CW, 437.150 USB
PCSat 25 Jul 03:22:26 03:26:58 27° 315° (NW) 03:31:33 145.825 MHz
Oscar 16 25 Jul 03:44:22 03:48:20 23° 297° (WNW) 03:52:17 437.025 USB, Beacon 2401.1428
ISS 25 Jul 03:47:51 03:50:37 23° 351° (N) 03:53:24 145.800 FM
TMSAT-1 25 Jul 03:48:39 03:53:56 63° 101° (ESE) 03:59:09 436.925 FM
ITAMSAT 1 25 Jul 03:55:18 04:00:04 38° 293° (WNW) 04:04:47 435.822 SSB
JAS-1B 25 Jul 03:58:53 04:08:38 80° 288° (WNW) 04:17:06 435.800 - 435.900 CW/SSB
OPAL 25 Jul 04:04:43 04:09:36 62° 256° (WSW) 04:14:32 ?
AO-Echo 25 Jul 04:08:18 04:12:36 27° 295° (WNW) 04:16:46 ?
Gurwin Techsat 1B 25 Jul 04:10:11 04:15:27 64° 288° (WNW) 04:20:41 435.225 FM
Lituanica SAT-1 25 Jul 04:13:33 04:14:57 15° 16° (NNE) 04:16:21 437.275 MHz beacon
AO-27 25 Jul 04:13:40 04:17:57 27° 296° (WNW) 04:22:13 436.795 MHz FM
Uribyol 2 25 Jul 04:16:25 04:20:30 24° 297° (WNW) 04:24:35 436.500 FM
Uosat F 25 Jul 04:22:24 04:26:47 29° 96° (E) 04:31:07 435.120 FM
Sapphire 25 Jul 04:35:41 04:37:32 12° 330° (NNW) 04:39:24 437.095 MHz 1200 baud AX-25 AFSK
AO-7 25 Jul 04:56:59 05:05:09 55° 102° (ESE) 05:13:14 29.400 - 29.500 MHz
ISS 25 Jul 05:25:17 05:28:07 24° 11° (N) 05:30:56 145.800 FM
TMSAT-1 25 Jul 05:29:40 05:33:22 20° 299° (WNW) 05:37:02 436.925 FM
Lituanica SAT-1 25 Jul 05:45:43 05:47:49 72° 212° (SSW) 05:49:53 437.275 MHz beacon
JAS-1B 25 Jul 05:50:35 05:57:33 23° 310° (NW) 06:04:04 435.800 - 435.900 CW/SSB
Uosat F 25 Jul 06:01:03 06:05:35 35° 293° (WNW) 06:10:06 435.120 FM
MaSat-1 25 Jul 06:17:01 06:21:03 21° 47° (NE) 06:25:02 437.345 MHz
KITSAT 1 25 Jul 06:19:23 06:26:31 36° 108° (ESE) 06:33:40 435.175 FM
STRAND 1 25 Jul 06:20:26 06:25:30 62° 72° (ENE) 06:30:35 ?
Hamsat 25 Jul 06:26:22 06:30:27 42° 98° (E) 06:34:33 145.90 MHz
AO-7 25 Jul 06:50:12 06:57:39 38° 302° (WNW) 07:05:04 29.400 - 29.500 MHz
ISS 25 Jul 07:01:52 07:05:14 74° 30° (NNE) 07:08:36 145.800 FM
Oscar 10/S400 25 Jul 07:04:44 08:13:38 23° 252° (WSW) 10:49:48 145.825 - 145.975 CW/USB, Beacon 145.810 USB
JAS-2 25 Jul 07:10:02 07:16:20 77° 103° (ESE) 07:21:53 435.800 - 435.900 CW/SSB, 435.910 FM
MaSat-1 25 Jul 07:53:39 07:58:59 72° 246° (WSW) 08:04:06 437.345 MHz
STRAND 1 25 Jul 08:01:46 08:05:06 17° 269° (W) 08:08:28 ?
Hamsat 25 Jul 08:03:06 08:06:08 19° 295° (WNW) 08:09:10 145.90 MHz
KITSAT 1 25 Jul 08:13:35 08:21:33 59° 309° (NW) 08:29:34 435.175 FM
SO-67 25 Jul 08:15:18 08:18:45 61° 285° (WNW) 08:22:10 435.3500 MHz FM
HO-68 25 Jul 08:27:59 08:32:18 17° 89° (E) 08:36:35 435.675 MHz FM
ISS 25 Jul 08:39:28 08:41:36 16° 227° (SW) 08:43:43 145.800 FM
PCSat 25 Jul 08:42:32 08:45:18 14° 34° (NNE) 08:48:03 145.825 MHz
JAS-2 25 Jul 08:56:26 09:00:33 19° 305° (NW) 09:04:23 435.800 - 435.900 CW/SSB, 435.910 FM
Saudisat 1A 25 Jul 08:57:15 09:01:40 81° 123° (ESE) 09:06:07 436.775 MHz
Sapphire 25 Jul 09:50:51 09:55:44 33° 48° (NE) 10:00:35 437.095 MHz 1200 baud AX-25 AFSK
UKube-1 25 Jul 09:57:47 10:02:05 57° 101° (E) 10:06:22 145.840 MHz, 145.915 MHz
KITSAT 1 25 Jul 10:13:04 10:18:52 21° 334° (NNW) 10:24:41 435.175 FM
HO-68 25 Jul 10:13:43 10:20:55 90° 107° (ESE) 10:28:04 435.675 MHz FM
PCSat 25 Jul 10:24:30 10:29:53 60° 55° (NE) 10:35:14 145.825 MHz
Saudisat 1A 25 Jul 10:38:52 10:41:49 17° 323° (NW) 10:44:47 436.775 MHz
Oscar 11 25 Jul 10:47:33 10:51:53 79° 285° (WNW) 10:56:13 145.825 FM, Beacon 2401.500 USB
FUNcube-1 25 Jul 10:57:25 11:01:28 47° 99° (E) 11:05:30 145.950 - 145.970 MHz USB
Sapphire 25 Jul 11:34:10 11:39:16 43° 247° (WSW) 11:44:20 437.095 MHz 1200 baud AX-25 AFSK
UKube-1 25 Jul 11:35:15 11:37:51 16° 298° (WNW) 11:40:26 145.840 MHz, 145.915 MHz
Oscar 16 25 Jul 11:47:16 11:49:11 12° 56° (ENE) 11:51:07 437.025 USB, Beacon 2401.1428
HO-68 25 Jul 12:02:49 12:07:43 20° 307° (NW) 12:12:37 435.675 MHz FM
PCSat 25 Jul 12:08:51 12:12:51 21° 254° (WSW) 12:16:49 145.825 MHz
KITSAT 1 25 Jul 12:13:53 12:18:03 15° 5° (N) 12:22:13 435.175 FM
AO-27 25 Jul 12:18:13 12:19:42 11° 55° (NE) 12:21:11 436.795 MHz FM
Uribyol 2 25 Jul 12:20:07 12:22:03 12° 56° (NE) 12:23:59 436.500 FM
FUNcube-1 25 Jul 12:34:55 12:37:31 16° 296° (WNW) 12:40:07 145.950 - 145.970 MHz USB
SO-50 25 Jul 12:48:19 12:51:43 22° 112° (ESE) 12:55:10 436.795 FM
JAS-1B 25 Jul 12:54:39 13:01:51 28° 53° (NE) 13:09:35 435.800 - 435.900 CW/SSB
Oscar 19 25 Jul 12:55:16 13:00:06 45° 69° (ENE) 13:04:58 437.125 CW, 437.150 USB
RS-15 25 Jul 13:14:02 13:23:52 38° 108° (ESE) 13:33:30 29.354 - 29.394 USB, Beacon 29.352 USB
Oscar 16 25 Jul 13:22:36 13:27:43 83° 75° (ENE) 13:32:52 437.025 USB, Beacon 2401.1428
TMSAT-1 25 Jul 13:33:39 13:36:51 16° 59° (ENE) 13:40:03 436.925 FM
ITAMSAT 1 25 Jul 13:35:11 13:40:12 50° 70° (ENE) 13:45:14 435.822 SSB
AO-Echo 25 Jul 13:42:50 13:48:01 60° 72° (ENE) 13:53:16 ?
AO-27 25 Jul 13:53:06 13:58:18 74° 73° (ENE) 14:03:32 436.795 MHz FM
Gurwin Techsat 1B 25 Jul 13:53:37 13:58:15 32° 66° (ENE) 14:02:55 435.225 FM
Uribyol 2 25 Jul 13:55:29 14:00:41 80° 74° (ENE) 14:05:54 436.500 FM
AO-7 25 Jul 14:08:06 14:13:50 21° 48° (NE) 14:19:34 29.400 - 29.500 MHz
KITSAT 1 25 Jul 14:10:05 14:16:48 28° 35° (NE) 14:23:29 435.175 FM
SO-50 25 Jul 14:27:38 14:31:58 47° 310° (NW) 14:36:24 436.795 FM
Oscar 19 25 Jul 14:35:35 14:39:39 24° 267° (W) 14:43:44 437.125 CW, 437.150 USB
JAS-1B 25 Jul 14:42:25 14:51:06 87° 255° (WSW) 15:00:59 435.800 - 435.900 CW/SSB
Oscar 16 25 Jul 15:05:38 15:07:43 12° 272° (W) 15:09:48 437.025 USB, Beacon 2401.1428
UOSAT-12 25 Jul 15:10:18 15:14:36 41° 117° (ESE) 15:19:00 437.025 FM, 437.400 FM
TMSAT-1 25 Jul 15:10:50 15:16:08 76° 257° (WSW) 15:21:28 436.925 FM
ITAMSAT 1 25 Jul 15:15:59 15:19:58 22° 267° (W) 15:23:57 435.822 SSB
AO-Echo 25 Jul 15:23:28 15:27:10 19° 269° (W) 15:30:54 ?
RS-15 25 Jul 15:24:32 15:35:34 67° 310° (NW) 15:46:29 29.354 - 29.394 USB, Beacon 29.352 USB
Gurwin Techsat 1B 25 Jul 15:33:17 15:38:08 36° 263° (W) 15:43:01 435.225 FM
AO-27 25 Jul 15:35:32 15:38:22 15° 271° (W) 15:41:13 436.795 MHz FM
Uosat F 25 Jul 15:36:48 15:41:37 48° 70° (ENE) 15:46:28 435.120 FM
Uribyol 2 25 Jul 15:38:21 15:40:46 13° 271° (W) 15:43:11 436.500 FM
Saudisat 1A 25 Jul 15:44:16 15:47:07 17° 36° (NE) 15:49:57 436.775 MHz
AO-7 25 Jul 15:57:03 16:05:24 80° 69° (ENE) 16:13:47 29.400 - 29.500 MHz
KITSAT 1 25 Jul 16:05:13 16:13:22 87° 58° (ENE) 16:21:26 435.175 FM
SO-50 25 Jul 16:12:27 16:13:42 11° 332° (NNW) 16:14:57 436.795 FM
OPAL 25 Jul 16:13:19 16:17:44 30° 98° (E) 16:22:11 ?
JAS-1B 25 Jul 16:36:43 16:43:00 21° 277° (W) 16:49:49 435.800 - 435.900 CW/SSB
UOSAT-12 25 Jul 16:50:48 16:54:52 30° 316° (NW) 16:59:01 437.025 FM, 437.400 FM
Uosat F 25 Jul 17:16:47 17:20:39 22° 267° (W) 17:24:31 435.120 FM
Hamsat 25 Jul 17:21:12 17:25:01 35° 70° (ENE) 17:28:51 145.90 MHz
JAS-2 25 Jul 17:21:16 17:28:35 45° 67° (ENE) 17:35:31 435.800 - 435.900 CW/SSB, 435.910 FM
Saudisat 1A 25 Jul 17:22:53 17:27:19 86° 236° (SW) 17:31:42 436.775 MHz
RS-15 25 Jul 17:41:22 17:50:28 29° 340° (NNW) 17:59:36 29.354 - 29.394 USB, Beacon 29.352 USB
Oscar 10/S400 25 Jul 17:42:23 17:43:55 10° 139° (SE) 17:45:27 145.825 - 145.975 CW/USB, Beacon 145.810 USB
OPAL 25 Jul 17:52:04 17:56:39 36° 295° (WNW) 18:01:16 ?
AO-7 25 Jul 17:52:43 17:59:01 23° 268° (W) 18:05:22 29.400 - 29.500 MHz
KITSAT 1 25 Jul 18:02:09 18:07:43 21° 258° (WSW) 18:13:17 435.175 FM
STRAND 1 25 Jul 18:30:46 18:34:18 19° 92° (E) 18:37:48 ?
SO-67 25 Jul 18:49:34 18:52:55 50° 74° (ENE) 18:56:18 435.3500 MHz FM
Hamsat 25 Jul 18:57:58 19:01:06 20° 267° (W) 19:04:15 145.90 MHz
HO-68 25 Jul 18:59:19 19:03:39 17° 51° (NE) 19:07:59 435.675 MHz FM
JAS-2 25 Jul 19:06:11 19:13:33 43° 263° (W) 19:20:36 435.800 - 435.900 CW/SSB, 435.910 FM
RS-15 25 Jul 19:58:36 20:07:32 27° 16° (NNE) 20:16:34 29.354 - 29.394 USB, Beacon 29.352 USB
STRAND 1 25 Jul 20:08:50 20:13:51 57° 289° (WNW) 20:18:49 ?
Oscar 11 25 Jul 20:11:37 20:12:29 11° 59° (ENE) 20:13:20 145.825 FM, Beacon 2401.500 USB
HO-68 25 Jul 20:43:05 20:50:15 78° 71° (ENE) 20:57:25 435.675 MHz FM
UKube-1 25 Jul 20:54:27 20:58:44 59° 73° (ENE) 21:03:04 145.840 MHz, 145.915 MHz
SO-50 25 Jul 21:17:30 21:21:49 33° 46° (NE) 21:26:10 436.795 FM
Oscar 11 25 Jul 21:43:41 21:47:59 86° 257° (WSW) 21:52:19 145.825 FM, Beacon 2401.500 USB
MaSat-1 25 Jul 21:46:43 21:50:25 38° 108° (ESE) 21:54:42 437.345 MHz
FUNcube-1 25 Jul 21:55:06 21:59:16 46° 72° (ENE) 22:03:22 145.950 - 145.970 MHz USB
UOSAT-12 25 Jul 21:59:50 22:01:51 12° 30° (NNE) 22:03:52 437.025 FM, 437.400 FM
RS-15 25 Jul 22:11:56 22:22:48 59° 47° (NE) 22:33:59 29.354 - 29.394 USB, Beacon 29.352 USB
UKube-1 25 Jul 22:33:07 22:35:20 14° 269° (W) 22:37:33 145.840 MHz, 145.915 MHz
HO-68 25 Jul 22:33:31 22:38:39 21° 269° (W) 22:43:48 435.675 MHz FM
SO-50 25 Jul 22:58:03 23:02:25 36° 244° (WSW) 23:06:48 436.795 FM
Lituanica SAT-1 25 Jul 23:17:56 23:19:48 28° 142° (SE) 23:21:40 437.275 MHz beacon
MaSat-1 25 Jul 23:24:25 23:27:57 25° 311° (NW) 23:31:54 437.345 MHz
FUNcube-1 25 Jul 23:33:05 23:35:54 17° 268° (W) 23:38:42 145.950 - 145.970 MHz USB
UOSAT-12 25 Jul 23:38:26 23:43:05 53° 51° (NE) 23:47:41 437.025 FM, 437.400 FM
ISS 25 Jul 23:47:26 23:48:28 11° 130° (SE) 23:49:31 145.800 FM
RS-15 26 Jul 00:24:41 00:34:54 46° 250° (WSW) 00:45:28 29.354 - 29.394 USB, Beacon 29.352 USB
Sapphire 26 Jul 00:35:25 00:39:16 20° 106° (ESE) 00:43:08 437.095 MHz 1200 baud AX-25 AFSK
Lituanica SAT-1 26 Jul 00:50:37 00:52:20 21° 339° (NNW) 00:54:03 437.275 MHz beacon
Oscar 19 26 Jul 01:06:58 01:09:38 14° 89° (E) 01:12:18 437.125 CW, 437.150 USB
PCSat 26 Jul 01:07:44 01:12:46 41° 112° (ESE) 01:17:49 145.825 MHz
UOSAT-12 26 Jul 01:19:23 01:22:53 21° 249° (WSW) 01:26:20 437.025 FM, 437.400 FM
ISS 26 Jul 01:21:20 01:24:41 81° 146° (SSE) 01:28:03 145.800 FM
Oscar 16 26 Jul 01:33:27 01:37:46 26° 94° (E) 01:42:04 437.025 USB, Beacon 2401.1428
ITAMSAT 1 26 Jul 01:48:03 01:51:08 16° 90° (E) 01:54:11 435.822 SSB
AO-Echo 26 Jul 01:50:16 01:53:35 17° 90° (E) 01:56:49 ?
AO-27 26 Jul 02:05:32 02:09:40 24° 93° (E) 02:13:45 436.795 MHz FM
Gurwin Techsat 1B 26 Jul 02:11:16 02:12:04 10° 86° (E) 02:12:52 435.225 FM
